Home > Weather > Koudougou > Past weeks

Flag for Burkina Faso Weather for the Past 2 Weeks in Koudougou, Burkina Faso

Now
64 °F

Clear.


Feels Like: 64 °F
Forecast: 62 / 94 °F
Wind: 6 mph from East

Location: Ouagadougou Airport

Current Time: Feb 9, 2016 at 6:57:43 AM

Latest Report: Feb 9, 2016 at 6:00 AM


Visibility: 5 mi

Pressure: 30.04 "Hg

Humidity: 32%

Dew point: 34 °F

Location of KoudougouLocation

Historic Weather in Koudougou — Graph

°F

Koudougou Temperature Yesterday

Maximum temperature yesterday: 91 °F (at 1:00 PM)
Minimum temperature yesterday: 63 °F (at 6:00 AM)
Average temperature yesterday: 77 °F

High & Low Weather Summary for the Past Weeks

 TemperatureHumidityPressure
High93 °F (Feb 6, 3:00 PM)37% (Feb 8, 7:00 AM)30.15 "Hg (Feb 8, 7:00 AM)
Low61 °F (Feb 1, 6:00 AM)9% (Feb 1, 2:00 PM)29.89 "Hg (Feb 2, 4:00 PM)
Average76 °F19%30.03 "Hg
* Reported Jan 25 5:00 AM — Feb 9 5:00 AM, Koudougou, Weather by CustomWeather, © 2016

Note: Actual official high and low records may vary slightly from our data, if they occured in-between our weather recording intervals... More about our weather records

Advertising

Koudougou Weather History for the Previous 24 Hours

 ConditionsComfort  
Time TempWeatherWind HumidityBarometerVisibility
5:00 AM
Tue, Feb 9
64 °FClear.5 mph32%30.04 "Hg5 mi
4:00 AM64 °FClear.3 mph32%30.04 "Hg5 mi
3:00 AM66 °FClear.5 mph30%30.04 "Hg5 mi
1:00 AM70 °FClear.6 mph27%30.07 "Hg5 mi
12:00 AM70 °FClear.6 mph27%30.07 "Hg5 mi
11:00 PM
Mon, Feb 8
72 °FClear.6 mph25%30.09 "Hg5 mi
10:00 PM75 °FClear.5 mph22%30.09 "Hg5 mi
9:00 PM75 °FClear.6 mph22%30.07 "Hg5 mi
8:00 PM77 °FClear.5 mph21%30.07 "Hg5 mi
7:00 PM81 °FClear.6 mph17%30.04 "Hg5 mi
6:00 PM86 °FClear.10 mph13%30.01 "Hg5 mi
5:00 PM90 °FClear.10 mph12%30.01 "Hg5 mi
4:00 PM91 °FClear.12 mph12%30.01 "Hg5 mi
3:00 PM91 °FClear.8 mph11%30.01 "Hg5 mi
2:00 PM91 °FClear.12 mph12%30.01 "Hg5 mi
1:00 PM91 °FClear.13 mph12%30.04 "Hg5 mi
12:00 PM90 °FClear.15 mph13%30.07 "Hg5 mi
11:00 AM86 °FClear.17 mph14%30.09 "Hg5 mi
10:00 AM82 °FClear.18 mph16%30.12 "Hg5 mi
9:00 AM79 °FClear.15 mph18%30.12 "Hg4 mi
8:00 AM72 °FDuststorm.9 mph25%30.09 "Hg2 mi
7:00 AM63 °FDuststorm.5 mph37%30.09 "Hg2 mi
6:00 AM63 °FClear.5 mph34%30.07 "Hg4 mi
Weather by CustomWeather, © 2016

See weather overviewHow to use our weather pages